Change the Weather History Date:

Wednesday, October 2, 2013

  Actual Average Record
Temperature  
Mean Temperature 60 °F -  
Max Temperature 78 °F 68 °F 91 °F (1953)
Min Temperature 42 °F 41 °F 19 °F (1974)
Degree Days  
Heating Degree Days 5    
Growing Degree Days 10 (Base 50)    
Moisture  
Dew Point 43 °F    
Average Humidity 57    
Maximum Humidity 94    
Minimum Humidity 23    
Precipitation  
Precipitation 0.55 in - - ()
Sea Level Pressure  
Sea Level Pressure 29.98 in    
Wind  
Wind Speed 6 mph (ESE)    
Max Wind Speed 36 mph    
Max Gust Speed 41 mph    
Visibility 10 miles    
Events Rain , Thunderstorm    
Averages and records for this station are not official NWS values.
T = Trace of Precipitation, MM = Missing Value Source: NWS Daily Summary

Daily Weather History Graph

Daily Weather History Graph

Search for Another Location

Airport or City:

Trip Planner

Search our weather history database for the weather conditions in past years. The results will help you decide how hot, cold, wet, or windy it might be!

Date:

Astronomy

Oct. 02, 2013 Rise Set
Actual Time 7:13 AM CDT 6:52 PM CDT
Civil Twilight 6:44 AM CDT 7:21 PM CDT
Nautical Twilight 6:11 AM CDT 7:54 PM CDT
Astronomical Twilight 5:37 AM CDT 8:28 PM CDT
Moon 4:43 AM CDT (10/2) 5:31 PM CDT (10/2)
Length of Visible Light 12h 36m
Length of Day
11h 39m
Waning Crescent, 6% of the Moon is Illuminated
Oct 2
Waning Crescent
Oct 4
New
Oct 11
First Quarter
Oct 18
Full
Oct 26
Last Quarter

Hourly Weather History & Observations

Time (CDT) Temp. Windchill Dew Point Humidity Pressure Visibility Wind Dir Wind Speed Gust Speed Precip Events Conditions
12:13 AM 44.6 °F - 41.0 °F 87% 30.04 in 10.0 mi Calm Calm - N/A   Clear
12:33 AM 44.6 °F - 41.0 °F 87% 30.04 in 10.0 mi Calm Calm - N/A   Clear
12:53 AM 44.6 °F - 41.0 °F 87% 30.03 in 10.0 mi Calm Calm - N/A   Clear
1:13 AM 44.6 °F - 39.2 °F 81% 30.04 in 10.0 mi Calm Calm - N/A   Clear
1:33 AM 42.8 °F - 37.4 °F 81% 30.05 in 10.0 mi Calm Calm - N/A   Clear
1:53 AM 44.6 °F - 39.2 °F 81% 30.05 in 10.0 mi Calm Calm - N/A   Clear
2:13 AM 44.6 °F 43.1 °F 39.2 °F 81% 30.05 in 10.0 mi East 3.5 mph - N/A   Clear
2:33 AM 44.6 °F - 39.2 °F 81% 30.05 in 10.0 mi Calm Calm - N/A   Clear
2:53 AM 42.8 °F - 37.4 °F 81% 30.05 in 10.0 mi Calm Calm - N/A   Clear
3:13 AM 42.8 °F - 37.4 °F 81% 30.05 in 10.0 mi Calm Calm - N/A   Clear
3:33 AM 44.6 °F - 41.0 °F 87% 30.05 in 10.0 mi Calm Calm - N/A   Clear
3:53 AM 42.8 °F - 39.2 °F 87% 30.05 in 10.0 mi Calm Calm - N/A   Clear
4:13 AM 44.6 °F - 39.2 °F 81% 30.05 in 10.0 mi Calm Calm - N/A   Clear
4:33 AM 44.6 °F 42.2 °F 41.0 °F 87% 30.05 in 10.0 mi ENE 4.6 mph - N/A   Clear
4:53 AM 44.6 °F 41.4 °F 41.0 °F 87% 30.05 in 10.0 mi ENE 5.8 mph - N/A   Clear
5:13 AM 46.4 °F 42.9 °F 41.0 °F 81% 30.05 in 10.0 mi ENE 6.9 mph - N/A   Clear
5:33 AM 46.4 °F 42.4 °F 39.2 °F 76% 30.05 in 10.0 mi ENE 8.1 mph - N/A   Clear
5:53 AM 46.4 °F 44.3 °F 37.4 °F 71% 30.05 in 10.0 mi East 4.6 mph - N/A   Clear
6:13 AM 44.6 °F 42.2 °F 37.4 °F 76% 30.06 in 10.0 mi East 4.6 mph - N/A   Clear
6:33 AM 44.6 °F 42.2 °F 37.4 °F 76% 30.06 in 10.0 mi East 4.6 mph - N/A   Clear
6:53 AM 44.6 °F 41.4 °F 37.4 °F 76% 30.06 in 10.0 mi East 5.8 mph - N/A   Clear
7:13 AM 42.8 °F 39.3 °F 37.4 °F 81% 30.06 in 10.0 mi East 5.8 mph - N/A   Clear
7:33 AM 44.6 °F 41.4 °F 37.4 °F 76% 30.07 in 10.0 mi ESE 5.8 mph - N/A   Clear
7:53 AM 46.4 °F 43.5 °F 37.4 °F 71% 30.07 in 10.0 mi East 5.8 mph - N/A   Clear
8:13 AM 50.0 °F - 42.8 °F 76% 30.07 in 10.0 mi East 5.8 mph - N/A   Clear
8:33 AM 53.6 °F - 42.8 °F 67% 30.07 in 10.0 mi ESE 5.8 mph - N/A   Clear
8:53 AM 55.4 °F - 42.8 °F 63% 30.08 in 10.0 mi East 5.8 mph - N/A   Clear
9:13 AM 59.0 °F - 42.8 °F 55% 30.07 in 10.0 mi ESE 4.6 mph - N/A   Clear
9:33 AM 62.6 °F - 42.8 °F 48% 30.07 in 10.0 mi ESE 6.9 mph - N/A   Clear
9:53 AM 62.6 °F - 42.8 °F 48% 30.07 in 10.0 mi ESE 9.2 mph - N/A   Clear
10:13 AM 66.2 °F - 41.0 °F 40% 30.07 in 10.0 mi ESE 9.2 mph - N/A   Clear
10:33 AM 68.0 °F - 39.2 °F 35% 30.06 in 10.0 mi ESE 13.8 mph 18.4 mph N/A   Clear
10:54 AM 69.8 °F - 41.0 °F 35% 30.06 in 10.0 mi ESE 11.5 mph 19.6 mph N/A   Clear
11:13 AM 71.6 °F - 41.0 °F 33% 30.05 in 10.0 mi ESE 16.1 mph 19.6 mph N/A   Clear
11:33 AM 73.4 °F - 41.0 °F 31% 30.05 in 10.0 mi SE 16.1 mph - N/A   Scattered Clouds
11:53 AM 73.4 °F - 39.2 °F 29% 30.05 in 10.0 mi SE 15.0 mph 21.9 mph N/A   Mostly Cloudy
12:13 PM 73.4 °F - 37.4 °F 27% 30.04 in 10.0 mi ESE 17.3 mph 23.0 mph N/A   Scattered Clouds
12:33 PM 73.4 °F - 35.6 °F 25% 30.03 in 10.0 mi SE 17.3 mph 24.2 mph N/A   Mostly Cloudy
12:54 PM 77.0 °F - 37.4 °F 24% 30.02 in 10.0 mi SE 18.4 mph 23.0 mph N/A   Scattered Clouds
1:13 PM 73.4 °F - 35.6 °F 25% 30.01 in 10.0 mi ESE 18.4 mph 25.3 mph N/A   Scattered Clouds
1:33 PM 78.8 °F - 39.2 °F 24% 29.99 in 10.0 mi SE 17.3 mph 26.5 mph N/A   Clear
1:54 PM 78.8 °F - 37.4 °F 23% 29.98 in 10.0 mi SE 18.4 mph 25.3 mph N/A   Clear
2:13 PM 78.8 °F - 39.2 °F 24% 29.97 in 10.0 mi SE 11.5 mph 20.7 mph N/A   Clear
2:33 PM 77.0 °F - 37.4 °F 24% 29.96 in 10.0 mi SE 16.1 mph 23.0 mph N/A   Clear
2:54 PM 77.0 °F - 39.2 °F 26% 29.95 in 10.0 mi SE 12.7 mph 19.6 mph N/A   Mostly Cloudy
3:13 PM 78.8 °F - 39.2 °F 24% 29.94 in 10.0 mi SSE 16.1 mph 21.9 mph N/A   Scattered Clouds
3:34 PM 78.8 °F - 39.2 °F 24% 29.93 in 10.0 mi SE 13.8 mph 18.4 mph N/A   Scattered Clouds
3:53 PM 78.8 °F - 41.0 °F 26% 29.92 in 10.0 mi SSE 13.8 mph 24.2 mph N/A   Clear
4:13 PM 78.8 °F - 42.8 °F 28% 29.91 in 10.0 mi SE 15.0 mph 20.7 mph N/A   Clear
4:33 PM 78.8 °F - 44.6 °F 30% 29.90 in 10.0 mi SE 15.0 mph 23.0 mph N/A   Clear
4:53 PM 78.8 °F - 46.4 °F 32% 29.90 in 10.0 mi SSE 11.5 mph 18.4 mph N/A   Clear
5:13 PM 77.0 °F - 46.4 °F 34% 29.89 in 10.0 mi SSE 12.7 mph 18.4 mph N/A   Scattered Clouds
5:34 PM 77.0 °F - 46.4 °F 34% 29.89 in 10.0 mi SE 10.4 mph 17.3 mph N/A   Scattered Clouds
5:53 PM 77.0 °F - 48.2 °F 36% 29.88 in 10.0 mi SSE 9.2 mph - N/A   Scattered Clouds
6:13 PM 73.4 °F - 50.0 °F 44% 29.86 in 10.0 mi SE 9.2 mph - N/A   Scattered Clouds
6:34 PM 73.4 °F - 50.0 °F 44% 29.86 in 10.0 mi SE 8.1 mph 16.1 mph N/A   Scattered Clouds
6:53 PM 73.4 °F - 51.8 °F 47% 29.86 in 10.0 mi ESE 6.9 mph - N/A   Scattered Clouds
7:14 PM 71.6 °F - 51.8 °F 50% 29.85 in 10.0 mi ESE 8.1 mph - N/A   Mostly Cloudy
7:33 PM 71.6 °F - 51.8 °F 50% 29.85 in 10.0 mi SE 8.1 mph - N/A   Mostly Cloudy
7:53 PM 71.6 °F - 51.8 °F 50% 29.86 in 10.0 mi SE 6.9 mph - N/A Thunderstorm Mostly Cloudy
8:13 PM 71.6 °F - 51.8 °F 50% 29.85 in 10.0 mi SE 8.1 mph - N/A   Scattered Clouds
8:33 PM 71.6 °F - 51.8 °F 50% 29.85 in 10.0 mi SE 11.5 mph 16.1 mph N/A Thunderstorm Scattered Clouds
8:53 PM 71.6 °F - 51.8 °F 50% 29.84 in 10.0 mi SSE 13.8 mph 18.4 mph N/A   Clear
9:13 PM 73.4 °F - 53.6 °F 50% 29.85 in 10.0 mi SE 9.2 mph 18.4 mph N/A   Mostly Cloudy
9:34 PM 71.6 °F - 53.6 °F 53% 29.85 in 10.0 mi SSE 11.5 mph 16.1 mph N/A   Light Drizzle
9:54 PM 71.6 °F - 53.6 °F 53% 29.86 in 10.0 mi West 9.2 mph - N/A Thunderstorm Thunderstorm
10:13 PM 68.0 °F - 55.4 °F 64% 29.86 in 10.0 mi NW 12.7 mph 19.6 mph N/A Rain , Thunderstorm Light Thunderstorms and Rain
10:33 PM 64.4 °F - 59.0 °F 83% 29.85 in 10.0 mi NE 3.5 mph - 0.01 in Rain , Thunderstorm Light Thunderstorms and Rain
10:53 PM 60.8 °F - 55.4 °F 82% 29.89 in 10.0 mi North 35.7 mph 41.4 mph 0.02 in Rain Light Rain
11:13 PM 59.0 °F - 55.4 °F 88% 29.91 in 5.0 mi North 23.0 mph 31.1 mph 0.01 in Rain , Thunderstorm Light Thunderstorms and Rain
11:33 PM 59.0 °F - 55.4 °F 88% 29.95 in 1.2 mi North 9.2 mph - 0.43 in Rain , Thunderstorm Heavy Thunderstorms and Rain
11:53 PM 59.0 °F - 57.2 °F 94% 29.91 in 4.0 mi NNE 8.1 mph - 0.53 in Rain , Thunderstorm Heavy Thunderstorms and Rain